Regional Weather Roundup
Issued by NWS

Home | Current Version | Previous Version | Graphics & Text | Print | Product List | Glossary On
Versions: 1 2 3 4 5 6 7 8 9 10 11 12 13 14 15 16 17 18 19 20 21 22 23 24 25 26 27 28 29 30 31 32 33 34 35 36 37 38 39 40 41 42 43 44 45 46 47 48 49 50
000
ASUS43 KLMK 252202
RWRKY
KENTUCKY REGIONAL WEATHER ROUNDUP
NATIONAL WEATHER SERVICE LOUISVILLE KY
600 PM EDT FRI JUL 25 2014

NOTE "FAIR" INDICATES FEW OR NO CLOUDS BELOW 12,000 FEET
WITH NO SIGNIFICANT WEATHER AND/OR OBSTRUCTIONS TO VISIBILITY.

KYZ001>023-026-027-061>063-070>075-252300-
WESTERN AND SOUTH CENTRAL KENTUCKY

CITY           SKY/WX    TMP DP  RH WIND       PRES   REMARKS
PADUCAH        CLOUDY    82  62  50 NE7       30.03F
HENDERSON      CLOUDY    73  61  64 S7        29.95F
OWENSBORO      CLOUDY    78  56  46 W7        30.03F
HOPKINSVILLE   CLOUDY    84  57  38 N8        30.04S
BOWLING GREEN  CLOUDY    83  55  38 N8        30.04R
GLASGOW        MOSUNNY   82  55  38 CALM      30.04R
$$

KYZ024-025-028>034-038-045-046-053-252300-
NORTH CENTRAL KENTUCKY

CITY           SKY/WX    TMP DP  RH WIND       PRES   REMARKS
LOUISVILLE/SDF CLOUDY    82  58  43 S13       30.00F
LOUISVILLE/LOU CLOUDY    82  53  36 VRB6      30.00F
FORT KNOX      PTSUNNY   78  58  49 NW1       30.01F
$$

KYZ035>037-039>044-047>052-055>060-089>105-252300-
NORTHEAST KENTUCKY

CITY           SKY/WX    TMP DP  RH WIND       PRES   REMARKS
LEXINGTON      MOSUNNY   80  56  43 SW6       30.03S
COVINGTON      CLOUDY    74  57  55 SW6       30.02S
FRANKFORT      PTSUNNY   78  56  46 SW7       30.01F
$$

KYZ054-064>069-076>088-106>120-252300-
SOUTHEAST KENTUCKY

CITY           SKY/WX    TMP DP  RH WIND       PRES   REMARKS
JACKSON        MOSUNNY   77  58  51 CALM      30.06F
LONDON         SUNNY     78  57  48 VRB3      30.05F
SOMERSET       NOT AVBL
MIDDLESBORO    MOSUNNY   80  64  59 N6        30.05S
MONTICELLO     PTCLDY    78  61  55 CALM      30.06F
$$



USA.gov is the U.S. government's official web portal to all federal, state and local government web resources and services.